Location: The Saddle
(36.8333°N, 80.3417°W)
Time: 08:47:46
(UTC-04:00)

Vanguard 2 Rocket - Pass Details

Date: 03 February 2023
Orbit: 555 x 3316 km, 32.9° (Epoch: 27 March)

Event Time Altitude Azimuth Distance (km) Brightness Sun altitude
Rises 14:01:42 0° 269° (W) 2,735 9.7 33.0°
Reaches altitude 10° 14:03:56 10° 260° (W) 1,827 9.0 32.8°
Maximum altitude 14:07:36 38° 191° (S) 915 9.0 32.5°
Drops below altitude 10° 14:12:05 10° 123° (ESE) 2,232 9.1 32.0°
Sets 14:15:06 0° 115° (ESE) 3,453 9.9 31.8°
